Regional Weather Roundup
Issued by NWS

Home | Current Version | Previous Version | Text Only | Print | Product List | Glossary Off
Versions: 1 2 3 4 5 6 7 8 9 10 11 12 13 14 15 16 17 18 19 20 21 22 23 24 25 26 27 28 29 30 31 32 33 34 35 36 37 38 39 40 41 42 43 44 45 46 47 48 49 50

000
ASUS43 KDMX 280203
RWRIA

WEATHER ROUNDUP FOR IOWA
NATIONAL WEATHER SERVICE DES MOINES IA
900 PM CDT SAT AUG 27 2016

NOTE: "FAIR" INDICATES FEW OR NO CLOUDS BELOW 12,000 FEET WITH NO
SIGNIFICANT WEATHER AND/OR OBSTRUCTIONS TO VISIBILITY.

* - THESE STATIONS ARE NOT NWS STATIONS...THUS NOT UNDER NWS
QUALITY CONTROL.  THEY ALSO DO NOT REPORT WEATHER SUCH
AS PRECIPITATION OR FOG.

IAZ001>003-012>014-020>022-031>034-043>046-280300-
   NORTHWEST IOWA

CITY           SKY/WX    TMP DP  RH WIND       PRES   REMARKS
CARROLL *      RAIN      68  68 100 CALM      30.04R
CHEROKEE *     CLEAR     67  66  96 CALM      30.02R
DENISON *      PTCLDY    70  66  88 E5        30.02R FOG
LE MARS *      CLEAR     72  66  83 SE6       30.02R
ORANGE CITY *  CLEAR     70  66  88 CALM      30.02R
SHELDON *      CLEAR     64  64 100 SE3       30.01R FOG
SIOUX CITY     CLEAR     71  65  81 SE6       30.00R
SPENCER        CLEAR     65  63  93 CALM      30.03R
STORM LAKE *   CLEAR     66  64  94 SE3       30.04R
$$

IAZ055>058-069>071-079>083-090>094-280300-
   SOUTHWEST IOWA

CITY           SKY/WX    TMP DP  RH WIND       PRES   REMARKS
ATLANTIC *     CLEAR     68  66  94 CALM      30.03R
AUDUBON *      CLEAR     66  63  88 CALM      30.05R
CLARINDA *       N/A     70  70 100 MISG      30.04R
COUNCIL BLFS * CLEAR     73  68  83 SE3       30.03R
CRESTON *      CLEAR     72  68  88 SE5       30.06R
HARLAN  *      CLEAR     68  66  94 CALM      30.06R
LAMONI         CLEAR     73  71  93 CALM      30.04R
RED OAK *      CLEAR     70  68  94 CALM      30.02R
SHENANDOAH *   CLEAR     72 -36   1 CALM      30.02R
$$

IAZ047>049-059>061-072>074-084-280300-
   CENTRAL IOWA

CITY           SKY/WX    TMP DP  RH WIND       PRES   REMARKS
AMES           CLEAR     69  69 100 CALM      30.04R
ANKENY *         N/A    N/A N/A N/A MISG        N/A
BOONE *          N/A     68  66  94 CALM      30.04R
CHARITON *       N/A     70  68  94 MISG      30.04S
DES MOINES     MOCLDY    75  69  81 SE5       30.03R
GRINNELL*      PTCLDY    70  67  90 E3        30.06R
KNOXVILLE *    CLEAR     75  70  83 CALM      30.04R
MARSHALLTOWN   CLEAR     68  67  96 E3        30.04R
NEWTON *       PTCLDY    72  70  94 E5        30.04R
PELLA *        CLEAR     72  69  92 CALM      30.06
PERRY *          N/A     68  68  99 E3        30.04R
$$

IAZ004>006-015-016-023>025-035-036-280300-
   NORTH CENTRAL IOWA

CITY           SKY/WX    TMP DP  RH WIND       PRES   REMARKS
ALGONA *       CLEAR     68  68 100 SE5       30.04R
ESTHERVILLE    CLEAR     63  63 100 CALM      30.03R
FORT DODGE *   CLEAR     70  64  83 CALM      30.05R
MASON CITY     PTCLDY    67  65  93 SE6       30.06R
FOREST CITY *    N/A    N/A N/A N/A MISG        N/A
WEBSTER CITY * CLEAR     64  64 100 SE6       30.03R
IOWA FALLS *     N/A     67  65  91 S5        30.06R
$$

IAZ007>011-017>019-026>030-037>042-050>054-066-280300-
   NORTHEAST IOWA

CITY           SKY/WX    TMP DP  RH WIND       PRES   REMARKS
CEDAR RAPIDS   PTCLDY    73  70  90 N6        30.04R
CHARLES CITY * PTCLDY    66  66 100 S5        30.06R
CLINTON *      CLEAR     72  70  93 NE3         N/A
DECORAH *      PTCLDY    66  66 100 S3        30.05R
DUBUQUE        CLEAR     69  66  90 E5        30.07R
MONTICELLO *   CLEAR     70  68  94 CALM      30.05R
OELWEIN *      CLEAR     68  66  94 CALM      30.07R
WATERLOO       CLEAR     67  65  93 CALM      30.04R
$$

IAZ064-065-067-068-078-280300-
   EAST CENTRAL IOWA

CITY           SKY/WX    TMP DP  RH WIND       PRES   REMARKS
DAVENPORT      CLEAR     72  69  90 NE6       30.05R
IOWA CITY      PTCLDY    77  70  79 N3        30.06R
MT. PLEASANT * CLEAR     78  76  95 CALM      30.05R HX  80
MUSCATINE *    CLOUDY    75  72  88 CALM      30.04R
QUAD CITIES    PTCLDY    76  72  87 E3        30.04R
$$

IAZ062-063-075>077-085>089-095>099-280300-
   SOUTHEAST IOWA

CITY           SKY/WX    TMP DP  RH WIND       PRES   REMARKS
BURLINGTON     CLEAR     77  73  87 S3        30.04R
FAIRFIELD *    PTCLDY    72  70  94 W3        30.05R
FORT MADISON * CLEAR     73  73 100 CALM      30.06R
KEOKUK *       CLEAR     77  75  94 CALM      30.04R
OSKALOOSA *      N/A     73  67  84 CALM      30.05R
CENTERVILLE *    N/A     72  70  94 CALM      30.06R
OTTUMWA        CLOUDY    71  67  87 CALM      30.05R
WASHINGTON *   PTCLDY    75  72  88 W3        30.06R
$$

ABBREVIATIONS USED IN REMARKS
   TC - TEMPERATURES IN CELSIUS
  WCI - WIND CHILL INDEX
   HX - HEAT INDEX
  VSB - VISIBILITY
$$





USA.gov is the U.S. government's official web portal to all federal, state and local government web resources and services.